Weather in Zelechow

Poland     51°48′40″N   21°53′51″E
temp.,
°C
wind,
m/s
gust,
m/s
humid.,
%
clouds,
%
prec.,
mm/h
press.,
hPa
HPBL,
m
12 may, wed
wed1223:00+14se716735 0.0 1013499
02:00+12ese616685 0.0 1012415
05:00+11ese717745 0.0 1012424
08:00+15ese715763 0.0 1012639
11:00+19ese912630 0.0 10111186
14:00+21ese8105612 0.0 10101821
17:00+18ese79660 0.0 10101366
20:00+13ese713680 0.0 1010534
13 may, thu
thu1323:00+11ese714730 0.0 1010489
02:00+8e512830 0.0 1008329
05:00+6e512870 0.0 1007291
08:00+10ese710735 0.0 1005539
11:00+15ese786330 0.0 10031195
14:00+14se6874100 0.0 1002995
17:00+12ese5884100 0.1 1002572
20:00+11e489599 0.4 1001356
14 may, fri
fri1423:00+11ese479894 0.1 1000220
02:00+11se2398100 0.1 1000104
05:00+11ssw5998100 0.8 1000489
08:00+11ssw5897100 2.6 1001435
11:00+11ssw5892100 0.9 1003558
14:00+13sw5682100 1.1 1004791
17:00+14wsw4676100 0.1 1004776
20:00+10sw3592100 0.1 1005136
15 may, sat
sat1523:00+9sw2397100 0.0 100651
02:00+10w4898100 0.2 1006326
05:00+10w5997100 0.0 1007386
08:00+11w5893100 0.0 1009468
11:00+13w5682100 0.1 1010776
14:00+16w446455 0.3 10101241
17:00+16w456537 0.4 10101196
20:00+12w238710 0.8 101034
16 may, sun
sun1623:00+10sw11895 0.0 101110
02:00+9s2293100 0.0 101126
05:00+9sse2393100 0.0 101051
08:00+13sse468031 0.0 1010396
11:00+17sse466725 0.3 10091139
14:00+19sse35597 1.4 10081496
17:00+18se4570100 1.3 1007582
20:00+12w61191100 3.0 1008380